| time (UTC) | temp C | wind direction | speed KPH | gust KPH | rain 1hr cm | rain 24hr cm | rain mn cm | humidity % | barometer mb |
| 20260906220024 | 33 | 246 | 9.7 | 17.7 | 0.00 | 0.00 | 0.00 | 19 | 1003.1 |
| 20260906214512 | 34 | 222 | 4.8 | 17.7 | 0.00 | 0.00 | 0.00 | 18 | 1003.5 |
| 20260906213010 | 33 | 348 | 1.6 | 12.9 | 0.00 | 0.00 | 0.00 | 19 | 1003.8 |
| 20260906211509 | 33 | 53 | 0.0 | 6.4 | 0.00 | 0.00 | 0.00 | 19 | 1004.0 |
| 20260906210004 | 32 | 74 | 1.6 | 8.0 | 0.00 | 0.00 | 0.00 | 21 | 1004.4 |
| 20260906204501 | 31 | 26 | 1.6 | 4.8 | 0.00 | 0.00 | 0.00 | 22 | 1004.6 |
| 20260906203059 | 31 | 25 | 0.0 | 4.8 | 0.00 | 0.00 | 0.00 | 21 | 1004.8 |
| 20260906201611 | 30 | 278 | 0.0 | 3.2 | 0.00 | 0.00 | 0.00 | 22 | 1005.1 |
| 20260906200056 | 32 | 347 | 1.6 | 6.4 | 0.00 | 0.00 | 0.00 | 20 | 1005.1 |
| 20260906194555 | 31 | 323 | 1.6 | 9.7 | 0.00 | 0.00 | 0.00 | 23 | 1005.4 |
| 20260906193055 | 29 | 346 | 1.6 | 4.8 | 0.00 | 0.00 | 0.00 | 23 | 1005.6 |
| 20260906191555 | 28 | 265 | 1.6 | 12.9 | 0.00 | 0.00 | 0.00 | 24 | 1005.9 |
| 20260906190050 | 31 | 233 | 4.8 | 11.3 | 0.00 | 0.00 | 0.00 | 22 | 1006.2 |
| 20260906184548 | 31 | 70 | 3.2 | 19.3 | 0.00 | 0.00 | 0.00 | 23 | 1006.3 |
| 20260906183107 | 30 | 98 | 1.6 | 14.5 | 0.00 | 0.00 | 0.00 | 24 | 1006.7 |
| 20260906181541 | 29 | 138 | 1.6 | 6.4 | 0.00 | 0.00 | 0.00 | 25 | 1007.0 |
| 20260906180055 | 28 | 234 | 1.6 | 14.5 | 0.00 | 0.00 | 0.00 | 26 | 1007.2 |
| 20260906174540 | 29 | 288 | 4.8 | 12.9 | 0.00 | 0.00 | 0.00 | 26 | 1007.5 |
| 20260906173035 | 28 | 360 | 1.6 | 8.0 | 0.00 | 0.00 | 0.00 | 27 | 1007.7 |
| 20260906171536 | 27 | 156 | 1.6 | 4.8 | 0.00 | 0.00 | 0.00 | 29 | 1008.0 |
| 20260906170035 | 26 | 103 | 0.0 | 4.8 | 0.00 | 0.00 | 0.00 | 32 | 1008.1 |
| 20260906164524 | 25 | 121 | 1.6 | 6.4 | 0.00 | 0.00 | 0.00 | 35 | 1008.2 |
| 20260906163020 | 23 | 171 | 1.6 | 9.7 | 0.00 | 0.00 | 0.00 | 36 | 1008.3 |
| 20260906161516 | 22 | 186 | 1.6 | 4.8 | 0.00 | 0.00 | 0.00 | 43 | 1008.5 |
| 20260906160019 | 21 | 196 | 1.6 | 4.8 | 0.00 | 0.00 | 0.00 | 47 | 1008.4 |
| 20260906154507 | 20 | 138 | 0.0 | 4.8 | 0.00 | 0.00 | 0.00 | 51 | 1008.5 |
| 20260906153003 | 18 | 98 | 1.6 | 6.4 | 0.00 | 0.00 | 0.00 | 55 | 1008.5 |
| 20260906151559 | 16 | 139 | 1.6 | 3.2 | 0.00 | 0.00 | 0.00 | 61 | 1008.7 |
| 20260906150059 | 14 | 140 | 0.0 | 3.2 | 0.00 | 0.00 | 0.00 | 68 | 1008.7 |
| 20260906144604 | 12 | 140 | 0.0 | 3.2 | 0.00 | 0.00 | 0.00 | 75 | 1008.7 |
| 20260906143056 | 11 | 140 | 0.0 | 3.2 | 0.00 | 0.00 | 0.00 | 77 | 1008.5 |
| 20260906141553 | 11 | 140 | 0.0 | 3.2 | 0.00 | 0.00 | 0.00 | 81 | 1008.6 |
| 20260906140052 | 10 | 140 | 0.0 | 3.2 | 0.00 | 0.00 | 0.00 | 82 | 1008.4 |
| 20260906134556 | 10 | 140 | 0.0 | 3.2 | 0.00 | 0.00 | 0.00 | 81 | 1008.5 |
| 20260906133056 | 9 | 140 | 0.0 | 3.2 | 0.00 | 0.00 | 0.00 | 82 | 1008.5 |
| 20260906131552 | 9 | 140 | 0.0 | 0.0 | 0.00 | 0.00 | 0.00 | 80 | 1008.3 |
| 20260906130056 | 9 | 140 | 0.0 | 3.2 | 0.00 | 0.00 | 0.00 | 78 | 1008.2 |
| 20260906124544 | 9 | 140 | 0.0 | 0.0 | 0.00 | 0.00 | 0.00 | 77 | 1007.9 |
| 20260906123043 | 9 | 140 | 0.0 | 0.0 | 0.00 | 0.00 | 0.00 | 77 | 1007.8 |
| 20260906121544 | 10 | 140 | 0.0 | 1.6 | 0.00 | 0.00 | 0.00 | 77 | 1007.5 |
| 20260906120039 | 10 | 140 | 0.0 | 3.2 | 0.00 | 0.00 | 0.00 | 76 | 1007.5 |
| 20260906114550 | 10 | 140 | 0.0 | 1.6 | 0.00 | 0.00 | 0.00 | 76 | 1007.5 |
| 20260906113050 | 10 | 140 | 0.0 | 3.2 | 0.00 | 0.00 | 0.00 | 76 | 1007.5 |
| 20260906111533 | 10 | 140 | 0.0 | 0.0 | 0.00 | 0.00 | 0.00 | 74 | 1007.3 |
| 20260906110032 | 10 | 140 | 0.0 | 3.2 | 0.00 | 0.00 | 0.00 | 74 | 1007.2 |
| 20260906104532 | 10 | 140 | 0.0 | 3.2 | 0.00 | 0.00 | 0.00 | 74 | 1007.1 |
| 20260906103029 | 11 | 140 | 0.0 | 0.0 | 0.00 | 0.00 | 0.00 | 72 | 1007.0 |
| 20260906101526 | 11 | 140 | 0.0 | 3.2 | 0.00 | 0.00 | 0.00 | 71 | 1006.8 |
| 20260906100023 | 11 | 140 | 0.0 | 3.2 | 0.00 | 0.00 | 0.00 | 70 | 1006.8 |
| 20260906094521 | 12 | 140 | 0.0 | 0.0 | 0.00 | 0.00 | 0.00 | 70 | 1006.6 |
| 20260906093022 | 12 | 140 | 0.0 | 0.0 | 0.00 | 0.00 | 0.00 | 69 | 1006.6 |
| 20260906091531 | 12 | 140 | 0.0 | 1.6 | 0.00 | 0.00 | 0.00 | 69 | 1006.6 |
| 20260906090019 | 12 | 140 | 0.0 | 3.2 | 0.00 | 0.00 | 0.00 | 69 | 1006.5 |
| 20260906084518 | 12 | 140 | 0.0 | 3.2 | 0.00 | 0.00 | 0.00 | 69 | 1006.5 |
| 20260906083016 | 12 | 140 | 0.0 | 3.2 | 0.00 | 0.00 | 0.00 | 68 | 1006.5 |
| 20260906081520 | 12 | 140 | 0.0 | 3.2 | 0.00 | 0.00 | 0.00 | 68 | 1006.6 |
| 20260906080012 | 13 | 140 | 0.0 | 3.2 | 0.00 | 0.00 | 0.00 | 67 | 1006.7 |
| 20260906074518 | 13 | 140 | 0.0 | 3.2 | 0.00 | 0.00 | 0.00 | 67 | 1006.5 |
| 20260906073009 | 13 | 140 | 0.0 | 3.2 | 0.00 | 0.00 | 0.00 | 67 | 1006.6 |
| 20260906071508 | 13 | 140 | 0.0 | 3.2 | 0.00 | 0.00 | 0.00 | 66 | 1006.6 |
| 20260906070005 | 13 | 140 | 0.0 | 3.2 | 0.00 | 0.00 | 0.00 | 65 | 1006.6 |
| 20260906064505 | 14 | 140 | 0.0 | 3.2 | 0.00 | 0.00 | 0.00 | 64 | 1006.6 |
| 20260906063059 | 15 | 140 | 0.0 | 1.6 | 0.00 | 0.00 | 0.00 | 63 | 1006.4 |
| 20260906061606 | 15 | 140 | 0.0 | 3.2 | 0.00 | 0.00 | 0.00 | 62 | 1006.2 |
| 20260906060052 | 16 | 140 | 0.0 | 3.2 | 0.00 | 0.00 | 0.00 | 60 | 1006.0 |
| 20260906054551 | 16 | 141 | 0.0 | 3.2 | 0.00 | 0.00 | 0.00 | 59 | 1006.0 |
| 20260906053051 | 16 | 140 | 0.0 | 3.2 | 0.00 | 0.00 | 0.00 | 58 | 1006.0 |
| 20260906051600 | 16 | 140 | 0.0 | 3.2 | 0.00 | 0.00 | 0.00 | 57 | 1006.0 |
| 20260906050054 | 17 | 141 | 0.0 | 3.2 | 0.00 | 0.00 | 0.00 | 56 | 1005.8 |
| 20260906044551 | 17 | 141 | 0.0 | 3.2 | 0.00 | 0.00 | 0.00 | 54 | 1005.7 |
| 20260906043048 | 17 | 141 | 0.0 | 4.8 | 0.00 | 0.00 | 0.00 | 53 | 1005.7 |
| 20260906041548 | 18 | 168 | 0.0 | 3.2 | 0.00 | 0.00 | 0.00 | 52 | 1005.6 |
| 20260906040048 | 19 | 168 | 0.0 | 3.2 | 0.00 | 0.00 | 0.00 | 50 | 1005.6 |
| 20260906034547 | 20 | 168 | 0.0 | 3.2 | 0.00 | 0.00 | 0.00 | 50 | 1005.2 |
| 20260906033051 | 20 | 168 | 0.0 | 3.2 | 0.00 | 0.00 | 0.00 | 48 | 1004.9 |
| 20260906031558 | 20 | 168 | 0.0 | 3.2 | 0.00 | 0.00 | 0.00 | 48 | 1004.8 |
| 20260906030045 | 20 | 168 | 0.0 | 3.2 | 0.00 | 0.00 | 0.00 | 48 | 1004.6 |
| 20260906024546 | 20 | 168 | 0.0 | 3.2 | 0.00 | 0.00 | 0.00 | 45 | 1004.2 |
| 20260906023044 | 21 | 168 | 0.0 | 3.2 | 0.00 | 0.00 | 0.00 | 45 | 1004.1 |
| 20260906021545 | 21 | 169 | 0.0 | 3.2 | 0.00 | 0.00 | 0.00 | 44 | 1003.9 |
| 20260906020043 | 23 | 171 | 0.0 | 3.2 | 0.00 | 0.00 | 0.00 | 44 | 1003.6 |
| 20260906014543 | 24 | 181 | 0.0 | 0.0 | 0.00 | 0.00 | 0.00 | 41 | 1003.4 |
| 20260906013043 | 25 | 181 | 0.0 | 3.2 | 0.00 | 0.00 | 0.00 | 38 | 1003.3 |
| 20260906011544 | 27 | 181 | 0.0 | 3.2 | 0.00 | 0.00 | 0.00 | 36 | 1003.1 |
| 20260906010042 | 28 | 181 | 0.0 | 3.2 | 0.00 | 0.00 | 0.00 | 33 | 1003.0 |
| 20260906004541 | 29 | 181 | 1.6 | 4.8 | 0.00 | 0.00 | 0.00 | 29 | 1003.0 |
| 20260906003041 | 30 | 190 | 1.6 | 6.4 | 0.00 | 0.00 | 0.00 | 28 | 1003.1 |
| 20260906001540 | 28 | 319 | 0.0 | 3.2 | 0.00 | 0.00 | 0.00 | 32 | 1002.5 |
| 20260906000039 | 29 | 319 | 0.0 | 3.2 | 0.00 | 0.00 | 0.00 | 32 | 1002.6 |
| 20260905234542 | 30 | 316 | 0.0 | 8.0 | 0.00 | 0.00 | 0.00 | 31 | 1003.1 |
| 20260905233043 | 29 | 71 | 1.6 | 6.4 | 0.00 | 0.00 | 0.00 | 32 | 1003.1 |
| 20260905231538 | 28 | 80 | 0.0 | 9.7 | 0.00 | 0.00 | 0.00 | 34 | 1003.2 |
| 20260905230048 | 27 | 11 | 1.6 | 4.8 | 0.00 | 0.00 | 0.00 | 36 | 1003.4 |
| 20260905224554 | 27 | 338 | 0.0 | 16.1 | 0.00 | 0.00 | 0.00 | 37 | 1003.1 |
| 20260905223036 | 28 | 277 | 11.3 | 20.9 | 0.00 | 0.00 | 0.00 | 33 | 1003.0 |
| 20260905221542 | 29 | 232 | 17.7 | 20.9 | 0.00 | 0.00 | 0.00 | 30 | 1003.3 |